CW2220 Weather Reports


Display with metric or nautical units.
time (UTC)temp
F
wind
direction
speed
MPH
gust
MPH
rain 1hr
in
rain 24hr
in
rain mn
in
humidity
%
barometer
mb
20260903073040 78 0 0.0 0.0 0.00 0.09 0.00 98 1014.0
20260903071540 77 0 0.0 0.0 0.00 0.09 0.00 98 1014.0
20260903070041 78 0 0.0 0.0 0.00 0.09 0.00 98 1014.2
20260903064541 78 0 0.0 0.0 0.00 0.09 0.00 98 1014.3
20260903063107 78 0 0.0 0.0 0.00 0.09 0.00 98 1014.4
20260903061540 78 0 0.0 3.0 0.00 0.09 0.00 97 1014.4
20260903060039 78 0 0.0 1.0 0.00 0.09 0.00 97 1014.6
20260903054539 78 0 0.0 0.0 0.00 0.09 0.00 97 1014.8
20260903053038 78 0 0.0 1.0 0.00 0.09 0.00 97 1015.0
20260903051547 78 0 0.0 1.0 0.00 0.09 0.00 97 1015.0
20260903050107 78 0 0.0 0.0 0.00 0.09 0.00 97 1014.9
20260903044538 78 0 0.0 0.0 0.00 0.09 0.09 97 1015.0
20260903043038 78 0 0.0 0.0 0.00 0.09 0.09 97 1015.0
20260903041550 78 0 0.0 0.0 0.00 0.09 0.09 97 1015.0
20260903040049 78 0 0.0 0.0 0.00 0.09 0.09 97 1015.1
20260903034540 78 0 0.0 0.0 0.00 0.09 0.09 97 1015.2
20260903033039 79 0 0.0 0.0 0.00 0.09 0.09 97 1015.3
20260903031540 79 0 0.0 0.0 0.00 0.09 0.09 96 1015.5
20260903030040 79 0 0.0 0.0 0.00 0.09 0.09 96 1015.5
20260903024541 79 0 0.0 0.0 0.00 0.09 0.09 96 1015.5
20260903023042 79 0 0.0 0.0 0.00 0.09 0.09 96 1015.3
20260903021539 79 0 0.0 0.0 0.00 0.09 0.09 95 1015.2
20260903020043 80 0 0.0 0.0 0.00 0.09 0.09 95 1015.1
20260903014549 80 0 0.0 0.0 0.00 0.09 0.09 95 1014.8
20260903013039 80 0 0.0 0.0 0.00 0.09 0.09 94 1014.6
20260903011555 80 0 0.0 1.0 0.00 0.09 0.09 94 1014.4
20260903010038 81 0 0.0 0.0 0.00 0.09 0.09 93 1014.3
20260903004542 81 0 0.0 1.0 0.00 0.09 0.09 93 1014.2
20260903003042 81 0 0.0 2.0 0.00 0.09 0.09 92 1014.3
20260903001544 81 0 0.0 1.0 0.00 0.09 0.09 92 1014.1
20260903000047 82 202 1.0 2.0 0.00 0.09 0.09 91 1014.3
20260902234546 82 0 0.0 3.0 0.00 0.09 0.09 91 1014.4
20260902233048 82 0 0.0 4.0 0.00 0.09 0.09 90 1014.5
20260902231554 82 109 1.0 4.0 0.00 0.09 0.09 90 1014.5
20260902230038 82 0 1.0 4.0 0.00 0.09 0.09 90 1014.6
20260902224547 82 188 1.0 5.0 0.00 0.09 0.09 91 1014.7
20260902223038 81 206 3.0 7.0 0.00 0.09 0.09 91 1014.6
20260902221547 81 157 1.0 5.0 0.00 0.09 0.09 91 1014.7
20260902220041 81 172 0.0 3.0 0.00 0.09 0.09 90 1014.8
20260902214546 80 97 0.0 2.0 0.00 0.09 0.09 90 1014.7
20260902213052 80 0 0.0 2.0 0.00 0.09 0.09 91 1014.9
20260902211547 80 196 1.0 4.0 0.00 0.09 0.09 92 1014.9
20260902210046 79 195 3.0 7.0 0.00 0.09 0.09 93 1015.0
20260902204538 79 203 1.0 5.0 0.00 0.09 0.09 93 1015.2
20260902203045 79 208 1.0 5.0 0.00 0.09 0.09 92 1015.3
20260902201542 79 0 0.0 4.0 0.00 0.09 0.09 92 1015.5
20260902200039 79 187 0.0 7.0 0.00 0.09 0.09 92 1015.5
20260902194546 80 211 2.0 6.0 0.00 0.09 0.09 92 1015.9
20260902193047 79 0 0.0 3.0 0.00 0.09 0.09 93 1016.0
20260902191542 79 59 1.0 3.0 0.00 0.09 0.09 93 1015.8
20260902190047 79 34 2.0 4.0 0.07 0.09 0.09 94 1016.1
20260902184554 79 0 0.0 2.0 0.09 0.09 0.09 93 1016.1
20260902183044 78 292 0.0 2.0 0.09 0.09 0.09 92 1016.1
20260902181546 79 112 2.0 4.0 0.09 0.09 0.09 91 1016.3
20260902180101 81 156 4.0 10.0 0.00 0.00 0.00 87 1016.5
20260902174544 83 155 4.0 9.0 0.00 0.00 0.00 82 1016.2
20260902173047 86 173 5.0 15.0 0.00 0.00 0.00 79 1016.1
20260902171547 89 191 4.0 11.0 0.00 0.00 0.00 78 1016.1
20260902170044 89 120 4.0 8.0 0.00 0.00 0.00 78 1016.2
20260902164539 88 202 3.0 10.0 0.00 0.00 0.00 78 1016.3
20260902163056 89 209 3.0 7.0 0.00 0.00 0.00 77 1016.6
20260902161553 89 248 1.0 7.0 0.00 0.00 0.00 79 1016.6
20260902160043 88 192 4.0 8.0 0.00 0.00 0.00 80 1016.8
20260902154539 89 205 5.0 10.0 0.00 0.01 0.00 80 1016.8
20260902153045 88 192 2.0 11.0 0.00 0.01 0.00 83 1016.7
20260902151538 87 194 2.0 8.0 0.00 0.01 0.00 84 1016.6
20260902150039 87 173 3.0 10.0 0.00 0.01 0.00 84 1016.5
20260902144539 87 178 3.0 6.0 0.00 0.23 0.00 84 1016.5
20260902143042 87 191 4.0 8.0 0.00 0.23 0.00 86 1016.5
20260902141538 86 106 2.0 7.0 0.00 0.23 0.00 88 1016.3
20260902140045 85 105 1.0 6.0 0.00 0.23 0.00 90 1016.4
20260902134540 84 199 1.0 5.0 0.00 0.26 0.00 91 1016.2
20260902133044 83 196 1.0 3.0 0.00 0.26 0.00 93 1016.1
20260902131539 83 0 1.0 5.0 0.00 0.26 0.00 94 1015.9
20260902130039 82 159 1.0 3.0 0.00 0.26 0.00 96 1015.8
20260902124538 80 178 0.0 5.0 0.00 0.28 0.00 98 1015.7
20260902123052 79 0 0.0 1.0 0.00 0.28 0.00 98 1015.5
20260902121539 78 0 0.0 0.0 0.00 0.28 0.00 98 1015.4
20260902120038 78 0 0.0 1.0 0.00 0.28 0.00 98 1015.4
20260902114544 78 0 0.0 0.0 0.00 0.52 0.00 98 1015.5
20260902113047 78 0 0.0 1.0 0.00 0.52 0.00 97 1015.3
20260902111546 78 0 0.0 0.0 0.00 0.52 0.00 97 1015.3
20260902110044 78 0 0.0 2.0 0.00 0.52 0.00 97 1015.3
20260902104549 78 0 0.0 1.0 0.00 0.62 0.00 97 1015.0
20260902103043 78 0 0.0 2.0 0.00 0.62 0.00 97 1015.0
20260902101544 78 89 0.0 3.0 0.00 0.62 0.00 97 1015.1
20260902094545 78 0 0.0 0.0 0.00 0.67 0.00 97 1015.0
20260902093047 78 0 0.0 1.0 0.00 0.67 0.00 97 1014.9
20260902091539 78 0 0.0 0.0 0.00 0.67 0.00 96 1015.0
20260902090041 79 0 0.0 0.0 0.00 0.67 0.00 96 1015.0
20260902084544 79 0 0.0 1.0 0.00 0.67 0.00 96 1014.9
20260902083043 79 0 0.0 4.0 0.00 0.67 0.00 96 1014.8
20260902081540 79 144 0.0 4.0 0.00 0.67 0.00 96 1014.7
20260902080045 79 188 1.0 3.0 0.00 0.67 0.00 97 1014.7
20260902074543 79 207 1.0 4.0 0.00 0.67 0.00 97 1015.0